Location: Waning Moon II Observatory
(30.3730°N, 89.7620°W)
Time: 20:07:10
(UTC-05:00)

Meteor 1-21 - Visible Passes

Search period start: 29 May 2016 00:00
Search period end: 08 June 2016 00:00
Orbit: 845 x 887 km, 81.2° (Epoch: 29 May)

Date Brightness Start Highest point End Pass type
(mag) Time Alt. Az. Time Alt. Az. Time Alt. Az.
29 May 4.7 21:47:54 37° ESE 21:48:34 39° E 21:53:53 10° NNE visible
29 May 6.2 23:30:11 19° W 23:31:52 21° WNW 23:36:12 10° NNW visible
30 May 4.8 21:39:58 35° ESE 21:41:15 39° E 21:46:35 10° NNE visible
30 May 6.3 23:22:16 17° WSW 23:24:34 21° WNW 23:28:52 10° NNW visible
31 May 4.8 21:31:59 30° SE 21:33:56 40° E 21:39:17 10° NNE visible
31 May 6.4 23:14:16 14° WSW 23:17:16 21° WNW 23:21:32 10° NNW visible
01 Jun 4.7 21:23:54 25° SE 21:26:37 40° E 21:32:00 10° NNE visible
01 Jun 6.4 23:06:11 12° WSW 23:09:58 21° WNW 23:14:12 10° NNW visible
02 Jun 4.7 21:15:45 20° SSE 21:19:19 40° E 21:24:42 10° NNE visible
02 Jun 6.5 22:58:28 10° WSW 23:02:39 20° WNW 23:06:52 10° NNW visible
03 Jun 4.7 21:07:27 14° SSE 21:11:59 41° E 21:17:24 10° NNE visible
03 Jun 6.5 22:51:11 10° WSW 22:55:21 20° WNW 22:59:32 10° NNW visible
04 Jun 4.7 20:59:18 10° SSE 21:04:41 41° E 21:10:06 10° NNE visible
04 Jun 6.5 22:43:54 10° WSW 22:48:02 20° WNW 22:52:12 10° NNW visible
05 Jun 4.7 20:51:58 10° SSE 20:57:22 42° E 21:02:47 10° NNE visible
05 Jun 6.6 22:36:37 10° WSW 22:40:43 20° WNW 22:44:52 10° NNW visible
06 Jun 4.7 20:44:38 10° SSE 20:50:03 42° E 20:55:30 10° NNE visible
06 Jun 6.6 22:29:20 10° WSW 22:33:25 20° WNW 22:37:32 10° NNW visible
07 Jun 4.7 20:37:19 10° SSE 20:42:44 43° E 20:48:11 10° NNE visible
07 Jun 6.7 22:22:03 10° WSW 22:26:07 19° WNW 22:30:12 10° NNW visible
